EST,Max TemperatureF,Mean TemperatureF,Min TemperatureF,Max Dew PointF,MeanDew PointF,Min DewpointF,Max Humidity, Mean Humidity, Min Humidity, Max Sea Level PressureIn, Mean Sea Level PressureIn, Min Sea Level PressureIn, Max VisibilityMiles, Mean VisibilityMiles, Min VisibilityMiles, Max Wind SpeedMPH, Mean Wind SpeedMPH, Max Gust SpeedMPH,PrecipitationIn, CloudCover, Events, WindDirDegrees
2013-2-1,30,27,24,12,8,2,55,43,30,30.22,29.94,29.80,10,10,10,18,14,30,0.00,3,,293
2013-2-2,28,24,19,21,12,4,88,60,35,30.31,30.17,30.07,10,7,2,18,8,25,0.00,4,Snow,260
2013-2-3,30,26,21,22,19,15,93,78,58,30.06,29.91,29.80,10,7,2,8,2,,0.00,5,Snow,354
2013-2-4,30,26,23,20,10,6,75,49,36,29.99,29.92,29.80,10,10,6,16,11,31,0.00,2,Snow,283
2013-2-5,30,28,26,28,25,19,93,85,72,29.98,29.93,29.91,9,6,2,8,4,,0.00,8,Snow,44
2013-2-6,39,34,28,28,22,7,93,71,40,30.35,30.06,29.91,10,7,2,14,5,25,0.00,4,,327
2013-2-7,32,28,23,22,10,3,69,48,29,30.53,30.44,30.35,10,10,10,10,5,,0.00,1,,51
2013-2-8,34,30,26,32,29,25,100,91,70,30.31,29.79,29.56,10,3,0,26,16,40,0.75,8,Fog-Rain-Snow,37
2013-2-9,30,26,21,25,16,3,96,67,36,30.32,29.92,29.69,10,4,0,26,16,39,0.03,2,Fog-Rain-Snow,339
2013-2-10,33,24,14,20,9,0,89,57,34,30.49,30.40,30.33,10,10,10,8,5,,0.00,0,,318
2013-2-11,44,35,26,45,39,21,100,96,78,30.34,29.91,29.67,10,3,0,15,6,26,0.55,7,Fog-Rain,199
2013-2-12,44,38,33,38,26,24,93,59,45,29.96,29.85,29.73,10,10,10,17,9,26,0.00,4,,289
2013-2-13,41,33,25,29,24,21,88,68,49,29.95,29.82,29.69,10,9,3,10,4,,0.00,2,Snow,27
2013-2-14,44,37,30,36,29,21,93,76,39,30.01,29.89,29.69,10,9,4,12,8,,0.00,3,,309
2013-2-15,46,38,30,37,34,28,93,83,66,30.04,29.99,29.94,10,6,2,13,6,,0.00,2,,203
2013-2-16,41,34,28,32,25,18,93,73,50,29.95,29.86,29.70,10,8,2,17,11,28,0.00,8,Snow,1
2013-2-17,32,25,17,21,8,-1,80,48,28,29.94,29.71,29.62,10,8,1,26,16,41,0.00,4,Snow,335
2013-2-18,35,26,17,15,5,0,52,41,27,30.23,30.16,29.97,10,10,10,21,14,38,0.00,0,,288
2013-2-19,45,38,30,43,34,16,100,80,55,30.21,29.88,29.67,10,8,4,23,9,37,0.18,5,Rain,223
2013-2-20,37,32,25,21,13,8,56,47,38,29.96,29.83,29.71,10,10,10,22,16,34,0.00,2,,294
2013-2-21,34,28,23,14,11,9,60,49,40,30.27,30.05,29.96,10,10,10,21,14,34,0.00,1,,315
2013-2-22,37,32,26,29,22,16,76,67,53,30.40,30.33,30.25,10,10,10,21,11,26,0.00,3,Snow,67
2013-2-23,42,39,36,41,37,30,100,92,76,30.29,30.03,29.79,10,5,2,20,9,26,0.27,8,Rain,90
2013-2-24,46,40,34,37,32,23,97,77,53,29.95,29.78,29.73,10,10,9,17,12,30,0.00,8,,344
2013-2-25,46,38,30,31,24,21,76,56,42,30.23,30.12,29.97,10,10,10,13,6,,0.00,4,,336
2013-2-26,43,38,32,36,32,28,93,76,60,30.31,30.19,29.92,10,9,3,18,8,26,0.09,6,Rain,100
2013-2-27,48,42,37,46,43,34,100,90,68,29.91,29.59,29.50,10,5,0,33,17,46,0.68,7,Fog-Rain,107
2013-2-28,48,44,39,38,34,28,89,70,56,29.63,29.59,29.54,10,9,7,13,3,21,0.00,7,Rain,294